CAPE
6 5 7 9 10 9 8 9 10 10 8 7 7 10 13 21 11 0 0 0 0 0 0 0 0 0 0 0 0 0 0 0 0 0 0 0 0 0 0 0 0 0 0 0 0 0 0 27 69 10 42 142 118 93
4 8 7 7 12 13 11 9 9 10 11 9 10 9 18 26 30 5 1 0 0 0 0 0 0 0 0 0 0 0 0 0 0 0 28 0 0 0 0 0 0 0 0 0 0 0 0 0 55 26 61 61 33 16
7 6 11 14 13 10 13 14 11 9 10 10 12 13 19 24 27 29 0 0 1 1 0 0 0 0 0 0 0 0 0 0 0 1 3 17 0 0 1 0 2 0 0 34 0 0 0 0 0 0 0 3 5 6
6 16 14 23 19 12 9 10 11 12 13 14 13 14 18 12 9 22 0 0 0 2 4 0 0 0 0 0 0 0 0 0 0 0 0 0 0 0 0 0 0 0 0 0 0 0 0 0 1 1 0 0 0 0
7 8 10 17 22 17 13 9 10 9 8 11 13 16 18 12 5 6 1 1 0 4 4 0 0 0 0 0 0 0 0 0 0 0 0 0 0 0 0 0 0 0 0 0 0 0 0 0 0 0 0 20 23 32
3 2 3 7 8 13 7 5 7 7 9 8 9 14 11 7 2 4 4 3 0 14 13 8 3 0 0 7 10 10 0 0 0 0 0 0 0 0 0 0 0 0 0 0 0 0 0 0 0 0 0 0 0 0
0 0 0 0 0 0 0 0 1 3 2 1 0 2 1 0 0 0 3 5 1 20 54 27 14 17 20 31 8 0 0 0 0 0 0 0 0 0 0 0 0 0 0 0 0 0 0 0 0 0 0 0 0 0
0 0 0 0 0 0 0 0 0 0 0 0 0 0 0 0 0 4 1 2 20 14 24 27 8 18 18 18 4 0 0 0 0 0 0 0 0 0 0 0 0 0 0 0 0 0 0 0 0 0 0 0 0 1
0 0 0 0 0 0 0 0 0 0 0 0 0 0 0 0 0 1 13 13 0 3 5 24 13 8 33 10 1 0 0 0 0 0 0 0 0 0 0 0 0 0 0 0 0 0 0 0 0 0 0 0 0 0
0 0 0 0 0 0 0 0 0 0 0 0 0 2 0 0 0 1 6 4 3 3 5 13 34 16 0 0 0 0 0 7 0 0 0 0 0 0 0 0 0 0 0 0 0 0 0 0 0 0 0 0 0 0
0 0 0 0 0 0 0 0 0 0 0 0 0 0 0 0 0 0 10 1 0 6 0 0 0 16 1 0 12 2 22 8 23 26 0 0 0 0 0 0 0 0 0 0 0 0 0 0 0 0 0 0 0 0
0 0 0 0 0 0 0 0 0 0 0 0 0 0 0 0 1 14 10 4 1 29 18 1 0 0 25 41 18 27 30 22 23 4 3 0 0 0 0 0 0 0 0 0 0 0 0 0 0 0 0 0 0 0
0 0 0 0 0 0 0 0 0 0 0 0 0 0 0 0 7 25 24 11 22 16 9 23 30 4 0 0 6 7 25 5 0 0 1 0 0 0 0 0 0 0 0 0 0 0 0 0 0 0 0 0 0 0
0 0 0 0 0 0 0 0 0 0 0 0 8 10 2 41 13 15 5 8 11 23 25 33 19 25 1 0 11 30 0 1 11 4 9 1 0 0 0 0 0 0 0 0 0 0 0 0 0 0 0 0 0 0
0 0 0 0 0 0 0 0 0 0 0 12 11 16 5 7 11 10 17 0 0 0 1 11 1 0 0 38 5 11 26 11 0 0 4 1 0 0 0 0 0 0 0 0 0 0 0 0 0 0 0 0 0 0
0 0 0 0 0 0 0 0 0 0 29 26 7 14 1 17 3 22 15 1 0 0 0 0 0 0 0 0 7 4 0 0 4 4 2 2 0 0 0 0 0 0 0 0 0 0 0 0 0 0 0 0 0 0
0 0 0 0 0 0 0 0 0 77 37 27 37 14 3 4 7 0 0 0 0 2 0 0 0 2 0 0 2 2 1 3 1 0 1 0 0 0 0 0 0 0 0 0 0 0 1 0 0 0 0 0 0 0
0 0 0 0 0 0 0 0 37 43 18 25 14 15 4 0 2 3 0 0 0 0 0 0 0 0 0 0 1 1 1 0 0 2 1 2 0 0 0 0 0 0 0 0 1 0 0 0 0 0 0 0 0 0
0 0 0 0 0 0 0 14 18 23 17 27 12 3 0 25 2 0 0 0 0 0 0 0 0 0 0 0 0 0 0 0 2 1 2 0 0 0 0 0 0 0 0 1 1 8 2 0 0 0 0 0 0 0
0 0 0 0 0 0 54 16 8 32 35 15 12 9 3 0 0 0 0 0 0 0 0 0 0 1 0 0 0 0 0 0 0 1 1 1 0 0 0 0 0 0 0 2 0 0 2 0 0 0 0 0 0 0
0 0 0 0 0 0 11 24 14 9 16 43 2 4 0 0 0 2 0 0 0 0 0 0 0 0 0 2 0 0 0 0 0 0 1 1 1 0 0 1 0 0 0 0 0 0 0 0 0 0 0 0 0 0
0 0 0 0 0 107 28 46 12 6 69 33 28 12 6 10 7 4 0 0 0 0 0 0 0 0 0 0 0 0 0 0 0 0 0 0 0 0 0 0 6 7 8 7 5 2 0 0 0 0 0 0 0 0
0 0 1 5 6 0 24 22 7 1 0 9 9 0 0 0 1 0 0 3 0 0 0 0 0 0 0 0 0 0 0 0 0 0 0 0 0 0 0 0 1 1 0 0 0 5 6 0 2 2 0 0 0 0
0 3 31 45 8 3 19 2 36 21 9 0 14 27 0 1 0 1 10 0 0 0 1 4 0 0 0 0 0 0 0 0 0 0 0 0 0 0 0 0 0 0 0 0 0 0 0 0 0 0 0 0 0 1
1 0 0 0 3 96 35 36 39 0 0 17 49 24 20 14 0 0 0 0 0 0 18 26 26 13 11 8 0 0 0 0 0 0 0 0 0 0 0 0 0 0 0 0 0 0 0 0 0 0 0 0 0 11
2 0 0 178 35 0 0 0 0 1 0 19 25 54 14 0 0 0 0 0 0 0 1 6 13 4 7 9 8 13 17 0 0 0 0 0 1 0 0 0 0 0 0 0 0 0 0 0 0 0 1 1 5 4
0 18 53 1 0 0 0 0 1 0 2 33 37 27 22 3 14 0 0 0 0 0 0 0 0 0 0 0 0 0 2 0 0 0 0 0 0 0 0 0 0 0 0 0 0 0 0 0 0 13 9 0 0 0
0 17 0 5 0 0 301 12 8 11 37 28 37 28 36 7 0 0 0 0 0 0 0 0 0 0 0 0 0 0 0 0 0 0 0 0 0 0 0 0 0 0 0 0 0 0 0 0 0 0 2 0 0 1
60 243 361 350 245 239 121 23 1 0 0 23 25 2 0 0 0 0 0 0 0 0 0 0 0 0 0 0 0 0 0 0 0 0 0 0 0 0 0 0 0 0 0 0 0 0 0 0 0 2 2 13 61 0
252 272 337 154 150 15 0 0 0 0 0 0 0 0 0 0 0 0 0 0 0 0 0 0 0 0 0 0 0 0 0 0 0 0 0 0 0 0 0 0 0 0 0 0 0 0 0 0 0 0 0 0 0 0
63 285 303 248 125 0 0 0 0 0 0 0 0 0 0 0 0 0 0 0 0 0 0 0 0 0 0 0 0 0 0 0 0 0 0 0 0 0 0 0 0 0 0 0 0 0 0 0 0 0 0 0 0 0
0 13 19 7 3 0 0 0 0 0 0 0 0 0 0 0 0 0 0 0 0 0 0 0 0 0 0 0 0 0 0 0 0 0 0 0 0 0 0 0 0 0 0 0 0 0 0 0 0 0 0 0 0 0
6 13 0 22 13 0 0 0 3 3 0 0 0 0 0 0 0 0 0 0 0 0 0 0 0 0 0 0 0 0 0 0 0 0 0 0 0 0 0 0 0 0 0 0 0 0 0 0 0 0 0 0 0 1
CIN
-0 -0 -0 -0 -0 -0 -0 -0 -0 -0 -0 -0 -1 -1 -1 -0 -0 -0 -0 -0 -0 -0 -0 -0 -0 -0 -0 -0 -0 -0 -0 -0 -0 -0 -0 -0 -0 -0 -0 -0 -0 -0 -0 -0 -0 -0 -0 -173 -242 -119 -392 -391 -383 -384
-0 -0 -0 -0 -0 -0 -0 -0 -0 -0 -0 -0 -0 -2 -0 -0 -0 -8 -0 -0 -0 -0 -0 -0 -0 -0 -0 -0 -0 -0 -0 -0 -0 -0 -18 -0 -0 -0 -0 -0 -0 -0 -0 -0 -0 -0 -0 -0 -279 -480 -470 -468 -449 -445
-0 -0 -0 -0 -0 -0 -0 -0 -0 -0 -0 -0 -0 -0 -1 -0 -0 -0 -0 -0 -0 -0 -0 -0 -0 -0 -0 -0 -0 -0 -0 -0 -0 -4 -24 -42 -0 -0 -2 -0 -55 -0 -0 -119 -0 -0 -0 -0 -0 -0 -54 -506 -525 -506
-0 -0 -0 -0 -0 -0 -0 -0 -0 -0 -0 -0 -0 -0 -0 -0 -0 -0 -0 -0 -0 -0 -0 -0 -0 -0 -0 -0 -0 -0 -0 -0 -0 -0 -0 -0 -0 -0 -0 -0 -0 -0 -0 -0 -0 -0 -0 -0 -25 -140 -0 -0 -0 -0
-3 -1 -1 -0 -0 -2 -5 -0 -0 -0 -0 -0 -0 -0 -0 -0 -0 -0 -0 -0 -0 -1 -0 -0 -4 -0 -0 -0 -0 -0 -0 -0 -0 -0 -0 -0 -0 -0 -0 -0 -0 -0 -0 -0 -0 -0 -0 -0 -0 -0 -0 -383 -404 -382
-0 -6 -0 -0 -0 -0 -0 -0 -0 -0 -0 -0 -0 -0 -0 -0 -0 -0 -0 -0 -0 -0 -0 -0 -18 -0 -0 -0 -0 -14 -0 -0 -0 -0 -0 -0 -0 -0 -0 -0 -0 -0 -0 -0 -0 -0 -0 -0 -0 -0 -0 -0 -0 -15
-0 -0 -0 -0 -0 -0 -0 -0 -0 -0 -0 -0 -0 -0 -0 -0 -0 -1 -8 -0 -0 -3 -0 -0 -2 -0 -0 -0 -12 -0 -0 -0 -0 -0 -0 -0 -0 -0 -0 -0 -0 -0 -0 -0 -0 -0 -0 -0 -0 -0 -0 -0 -0 -0
-0 -0 -0 -0 -0 -0 -0 -0 -0 -0 -0 -0 -0 -0 -0 -0 -0 -0 -0 -3 -1 -4 -0 -0 -1 -0 -4 -6 -14 -0 -0 -0 -0 -0 -0 -0 -0 -0 -0 -0 -0 -0 -0 -0 -0 -0 -0 -0 -0 -0 -0 -0 -0 -75
-0 -0 -0 -0 -0 -0 -0 -0 -0 -0 -0 -0 -0 -0 -0 -0 -14 -0 -0 -1 -1 -0 -3 -0 -0 -0 -3 -4 -24 -0 -0 -0 -0 -0 -0 -0 -0 -0 -0 -0 -0 -0 -0 -0 -0 -0 -0 -0 -0 -0 -0 -0 -0 -0
-0 -0 -0 -0 -0 -0 -0 -0 -0 -0 -0 -0 -0 -0 -0 -0 -0 -0 -0 -0 -0 -0 -0 -0 -16 -2 -0 -0 -0 -0 -0 -21 -1 -0 -0 -0 -0 -0 -0 -0 -0 -0 -0 -0 -0 -0 -0 -0 -0 -0 -0 -0 -0 -0
-0 -0 -0 -0 -0 -0 -0 -0 -0 -0 -0 -0 -0 -0 -0 -6 -0 -0 -21 -0 -0 -16 -0 -0 -12 -17 -3 -0 -10 -18 -63 -75 -21 -49 -0 -0 -0 -0 -0 -0 -0 -0 -0 -0 -0 -0 -0 -0 -0 -0 -0 -0 -0 -0
-0 -0 -0 -0 -0 -0 -0 -0 -0 -0 -0 -0 -0 -0 -0 -0 -10 -15 -27 -18 -5 -3 -28 -15 -35 -0 -64 -101 -35 -77 -25 -77 -30 -72 -21 -0 -0 -0 -0 -0 -0 -0 -0 -0 -0 -0 -0 -0 -0 -0 -0 -0 -0 -0
-0 -0 -0 -0 -0 -0 -0 -0 -0 -0 -0 -0 -0 -36 -1 -0 -9 -1 -2 -10 -18 -32 -30 -40 -36 -87 -0 -0 -88 -128 -24 -28 -0 -0 -0 -0 -0 -0 -0 -0 -0 -0 -0 -0 -0 -0 -0 -0 -0 -0 -0 -0 -0 -0
-0 -0 -0 -0 -0 -0 -0 -0 -0 -0 -0 -10 -34 -10 -23 -9 -11 -11 -14 -13 -16 -12 -42 -74 -90 -92 -76 -6 -99 -36 -0 -4 -20 -17 -28 -107 -0 -0 -0 -0 -0 -0 -0 -0 -0 -0 -0 -0 -0 -0 -0 -0 -0 -0
-0 -0 -0 -0 -0 -0 -0 -0 -0 -0 -0 -33 -21 -8 -3 -9 -29 -16 -23 -0 -2 -0 -24 -47 -41 -0 -0 -9 -16 -35 -30 -24 -0 -0 -0 -0 -0 -0 -0 -0 -0 -0 -0 -0 -0 -0 -0 -0 -0 -0 -0 -0 -0 -0
-0 -0 -0 -0 -0 -0 -0 -0 -0 -0 -54 -46 -29 -16 -12 -25 -31 -27 -37 -15 -0 -0 -0 -0 -0 -0 -0 -0 -8 -8 -0 -0 -0 -0 -0 -0 -0 -0 -0 -0 -0 -0 -0 -0 -0 -0 -0 -0 -0 -0 -0 -0 -0 -0
-0 -0 -0 -0 -0 -0 -0 -0 -0 -41 -42 -13 -14 -47 -38 -45 -30 -0 -0 -0 -0 -22 -0 -0 -0 -0 -0 -1 -0 -0 -0 -0 -0 -0 -0 -0 -0 -0 -0 -0 -0 -0 -0 -0 -0 -0 -27 -11 -0 -0 -0 -0 -0 -0
-0 -0 -0 -0 -0 -0 -0 -0 -58 -33 -8 -33 -21 -30 -43 -0 -23 -27 -0 -0 -0 -0 -0 -0 -0 -0 -0 -0 -0 -0 -1 -0 -0 -0 -0 -0 -0 -0 -0 -0 -0 -0 -0 -0 -28 -0 -0 -0 -0 -0 -0 -0 -0 -0
-0 -0 -0 -0 -0 -0 -0 -49 -62 -11 -15 -34 -83 -30 -1 -57 -15 -0 -0 -0 -0 -0 -0 -4 -0 -6 -0 -0 -0 -0 -3 -4 -0 -0 -0 -0 -0 -0 -0 -0 -0 -0 -0 -16 -22 -37 -47 -0 -0 -0 -0 -0 -0 -0
-0 -0 -0 -0 -0 -0 -31 -50 -91 -20 -12 -26 -76 -32 -15 -0 -49 -0 -0 -0 -0 -0 -0 -0 -0 -3 -0 -0 -3 -4 -0 -1 -1 -0 -0 -0 -0 -0 -0 -0 -0 -0 -0 -19 -0 -0 -45 -12 -0 -0 -0 -18 -2 -5
-0 -0 -0 -0 -0 -0 -57 -56 -26 -60 -33 -12 -42 -50 -0 -0 -0 -31 -0 -0 -0 -0 -0 -0 -0 -0 -0 -9 -0 -0 -0 -0 -0 -0 -0 -0 -0 -0 -0 -36 -57 -0 -0 -0 -0 -0 -0 -0 -0 -0 -0 -0 -0 -0
-0 -0 -0 -0 -0 -25 -76 -83 -129 -118 -32 -49 -32 -51 -94 -42 -39 -25 -0 -0 -0 -0 -0 -0 -0 -0 -0 -0 -0 -1 -0 -0 -0 -0 -0 -0 -0 -0 -8 -0 -39 -44 -61 -77 -82 -18 -9 -0 -0 -0 -0 -0 -0 -0
-0 -0 -15 -28 -21 -0 -39 -60 -38 -21 -0 -41 -24 -0 -44 -0 -18 -0 -6 -23 -0 -2 -0 -0 -0 -0 -0 -0 -0 -0 -0 -0 -0 -0 -0 -0 -0 -0 -0 -0 -84 -31 -29 -0 -0 -96 -90 -0 -35 -86 -0 -0 -0 -0
-0 -7 -32 -34 -28 -10 -44 -11 -29 -23 -39 -0 -62 -33 -0 -6 -0 -8 -62 -0 -0 -0 -12 -68 -0 -0 -0 -0 -0 -0 -0 -0 -0 -0 -0 -0 -0 -0 -0 -0 -0 -0 -0 -0 -0 -0 -0 -0 -0 -0 -0 -0 -27 -25
-3 -0 -0 -0 -30 -11 -21 -21 -36 -0 -0 -43 -19 -16 -43 -54 -0 -0 -0 -0 -0 -0 -75 -82 -84 -100 -131 -150 -8 -15 -0 -0 -0 -0 -0 -0 -0 -0 -0 -0 -0 -0 -0 -0 -0 -0 -0 -0 -0 -0 -0 -0 -1 -119
-1 -0 -0 -40 -110 -0 -2 -0 -0 -55 -0 -86 -61 -10 -69 -0 -0 -0 -0 -0 -0 -0 -17 -122 -129 -76 -101 -141 -149 -128 -136 -0 -0 -0 -0 -0 -61 -18 -0 -0 -0 -0 -0 -0 -0 -0 -0 -0 -0 -50 -37 -101 -124 -124
-0 -43 -56 -58 -0 -0 -0 -0 -21 -0 -53 -83 -30 -19 -21 -63 -23 -0 -0 -0 -0 -0 -0 -0 -0 -0 -0 -26 -0 -0 -67 -0 -0 -0 -0 -0 -0 -0 -0 -0 -0 -0 -0 -0 -0 -0 -0 -0 -0 -142 -100 -0 -0 -22
-0 -92 -0 -129 -26 -0 -32 -110 -143 -119 -86 -88 -42 -24 -31 -38 -0 -0 -0 -0 -0 -0 -0 -0 -0 -0 -0 -0 -0 -0 -0 -0 -0 -0 -0 -0 -0 -0 -0 -0 -0 -0 -0 -0 -0 -0 -0 -0 -0 -0 -11 -0 -0 -68
-114 -64 -39 -42 -35 -27 -37 -43 -26 -0 -0 -42 -27 -5 -0 -0 -0 -0 -0 -0 -0 -0 -0 -0 -0 -0 -0 -0 -0 -0 -0 -0 -0 -0 -0 -0 -0 -0 -0 -0 -0 -0 -0 -0 -0 -0 -0 -0 -16 -134 -122 -132 -130 -0
-67 -70 -38 -76 -42 -8 -0 -0 -0 -0 -0 -0 -0 -0 -0 -0 -0 -0 -0 -0 -0 -0 -0 -0 -0 -0 -0 -0 -0 -0 -0 -0 -0 -0 -0 -0 -0 -0 -0 -0 -0 -0 -0 -0 -0 -0 -0 -0 -0 -0 -0 -0 -0 -0
-147 -47 -16 -13 -11 -0 -0 -0 -0 -0 -0 -0 -0 -0 -0 -0 -0 -0 -0 -0 -0 -0 -0 -0 -0 -0 -0 -0 -0 -0 -0 -0 -0 -0 -0 -0 -0 -0 -0 -0 -0 -0 -0 -0 -0 -0 -0 -0 -0 -0 -0 -0 -0 -0
-0 -98 -58 -32 -34 -1 -0 -0 -0 -0 -0 -0 -0 -0 -0 -0 -0 -0 -0 -0 -0 -0 -0 -0 -0 -0 -0 -0 -0 -0 -0 -0 -0 -0 -0 -0 -0 -0 -0 -0 -0 -0 -0 -0 -0 -0 -0 -0 -0 -0 -0 -0 -0 -0
-69 -114 -2 -53 -29 -0 -0 -0 -24 -5 -0 -0 -0 -0 -0 -0 -0 -0 -0 -0 -0 -0 -0 -0 -0 -0 -0 -0 -0 -0 -0 -0 -0 -0 -0 -0 -0 -0 -0 -0 -0 -0 -0 -0 -0 -0 -0 -0 -0 -0 -0 -0 -0 -71
Wind_Speed
23 23 24 25 25 24 24 23 22 21 20 19 17 15 16 15 12 8 2 5 4 3 4 4 6 6 2 2 2 5 4 6 4 3 1 3 5 5 3 6 9 8 7 5 3 4 5 2 3 5 6 7 10 5
23 25 25 25 25 25 23 23 22 21 20 21 19 18 16 14 12 13 2 4 4 3 3 2 6 7 6 5 4 3 5 2 3 3 3 1 2 3 2 8 2 4 8 7 6 7 4 3 7 7 11 12 5 8
24 24 22 23 23 22 19 18 18 19 19 20 20 19 17 16 15 12 3 4 3 1 3 3 10 9 5 6 4 4 3 4 3 1 4 2 4 4 2 6 3 1 4 7 7 4 6 7 7 7 10 9 8 7
23 19 19 18 18 17 15 15 16 17 17 17 17 17 16 15 14 15 4 4 3 3 3 5 6 8 7 9 7 3 2 4 1 3 3 2 3 5 6 4 3 5 4 8 4 5 6 4 7 9 9 9 8 7
19 17 17 16 16 17 17 17 19 18 12 13 12 12 12 12 12 7 3 5 4 3 2 3 5 5 6 10 13 6 1 1 2 4 3 5 4 3 2 6 1 2 7 6 6 11 7 5 6 7 8 6 8 6
16 15 15 15 15 15 15 17 19 21 17 6 2 4 6 8 10 3 2 4 6 3 1 2 3 2 5 9 9 9 5 4 4 4 5 1 1 6 4 4 2 1 3 7 6 8 7 8 9 6 6 7 6 7
13 13 13 14 13 13 13 15 17 18 18 19 7 9 9 10 3 2 1 0 9 3 2 3 3 2 8 5 2 1 5 7 7 4 4 4 1 5 4 2 3 2 13 15 15 16 8 4 6 6 8 7 7 6
11 11 11 12 12 10 10 11 12 14 15 14 13 9 10 7 3 1 1 7 5 1 3 2 2 0 3 3 1 7 4 2 3 3 2 4 2 3 2 4 7 5 11 9 8 7 9 8 8 7 6 6 6 5
10 10 11 12 11 11 12 11 11 9 8 5 4 3 3 1 2 2 8 9 1 1 2 2 3 1 3 3 4 3 4 4 3 3 1 5 0 2 7 7 9 12 9 12 9 13 10 9 9 7 6 6 6 7
9 9 9 10 11 11 11 12 13 13 11 3 1 2 2 1 16 12 0 2 2 3 3 2 2 2 4 2 3 0 2 1 2 4 3 4 4 4 8 9 8 12 14 13 11 7 7 5 6 6 8 6 7 7
9 9 9 9 9 10 11 12 14 16 4 3 4 2 2 9 1 2 2 2 3 2 2 2 3 2 4 2 3 1 1 1 2 5 5 2 3 6 8 8 8 11 12 8 10 8 8 10 8 7 5 5 4 6
9 8 8 8 8 9 10 11 12 5 1 2 1 3 2 2 2 2 3 3 2 3 0 2 3 5 0 1 3 3 3 3 4 1 3 2 5 4 7 9 10 14 15 14 12 11 9 9 7 6 6 6 4 5
8 8 8 8 8 10 11 12 12 12 10 2 1 2 2 2 4 3 5 5 4 3 2 4 3 2 4 5 3 4 3 4 2 3 2 5 3 3 11 14 12 13 16 14 11 9 9 7 6 5 5 4 7 6
8 8 8 9 10 11 12 12 12 9 3 2 2 5 2 3 3 1 1 2 3 3 6 3 3 3 2 5 3 4 2 3 3 1 3 4 4 5 7 10 16 13 13 12 10 9 8 6 5 6 6 6 7 6
8 9 9 11 13 13 12 12 12 2 1 2 1 2 3 3 2 1 1 2 4 3 3 2 3 3 2 3 2 3 1 2 2 1 3 7 5 3 7 10 12 12 11 9 7 7 7 7 6 5 5 6 7 6
8 10 4 10 11 9 9 8 3 3 2 1 3 4 4 3 5 4 2 1 3 4 3 4 2 3 3 1 2 2 2 1 2 3 5 3 4 7 6 8 9 9 9 7 7 6 7 7 7 6 7 8 7 7
6 2 10 9 10 12 8 1 2 3 2 2 2 1 3 2 2 2 1 3 4 3 2 2 4 2 2 1 1 3 2 2 3 5 5 3 10 8 8 7 8 9 8 7 7 6 7 5 6 8 9 4 6 5
3 4 12 11 8 5 1 3 2 2 2 1 3 4 2 1 1 2 2 3 4 3 3 2 2 3 1 0 1 1 2 2 2 3 3 4 10 10 2 7 6 8 7 6 7 5 6 6 6 4 6 4 5 5
6 8 12 11 6 2 2 3 3 1 2 2 1 1 2 1 1 2 2 2 3 4 6 2 3 1 2 1 1 2 2 1 2 3 3 6 6 9 8 8 8 7 7 5 5 4 4 5 5 4 3 3 3 2
14 17 15 9 1 2 3 4 2 1 2 4 3 2 3 2 1 1 1 2 3 1 3 2 3 2 2 2 2 2 1 1 3 4 5 5 6 10 9 7 5 6 5 5 4 4 3 3 2 3 4 3 4 2
6 4 3 5 2 3 3 2 3 3 2 1 3 3 1 2 2 2 2 1 4 2 1 2 3 2 1 2 2 2 3 3 3 2 4 5 3 7 7 1 3 3 3 3 4 3 5 3 2 1 3 2 4 4
3 4 2 3 2 3 3 3 5 4 1 2 3 3 3 2 2 3 2 4 1 2 2 3 4 3 3 3 3 2 4 5 4 4 5 5 3 4 3 3 2 2 2 3 2 3 3 4 4 3 3 2 3 2
8 3 3 2 2 3 8 1 2 1 2 3 3 3 2 2 4 2 3 2 2 1 2 3 4 5 5 5 4 3 4 5 3 3 4 3 3 3 3 4 5 5 4 5 6 3 2 2 4 4 3 2 2 2
1 2 2 2 3 4 3 2 1 2 1 1 0 3 4 4 2 3 2 2 3 1 2 3 3 4 2 2 3 4 5 5 4 3 4 4 3 4 4 4 3 5 5 4 4 5 4 5 6 1 4 4 4 4
1 4 4 4 4 4 3 3 2 2 2 3 3 3 3 4 3 1 5 4 4 4 5 4 4 4 4 4 3 4 5 5 5 5 5 6 4 1 2 1 2 0 3 5 3 4 4 5 5 5 4 5 6 6
2 4 7 4 2 1 2 2 2 3 2 3 4 2 3 4 2 5 6 7 5 5 6 7 6 4 4 5 4 4 5 5 5 3 4 5 5 4 2 3 3 1 2 4 6 5 4 3 5 6 3 6 8 8
3 6 4 1 4 2 2 3 1 2 3 4 4 3 3 2 4 4 2 3 5 5 8 9 8 6 6 7 4 4 5 6 6 5 2 3 4 5 5 7 7 5 5 7 5 6 6 5 3 5 6 3 3 4
5 4 6 6 5 5 5 3 5 7 5 5 3 5 5 6 6 4 5 5 6 5 5 6 6 5 4 5 5 5 5 6 7 5 6 5 5 5 6 4 2 9 8 6 6 5 6 6 5 4 4 4 3 1
4 4 3 7 4 3 6 7 4 2 2 3 3 1 1 1 4 4 3 4 4 5 4 4 3 3 3 4 4 5 7 8 9 10 9 5 3 1 2 4 4 5 5 6 9 7 8 8 8 7 6 5 3 1
5 3 3 1 3 0 2 4 2 1 1 4 4 3 4 3 1 3 5 4 4 3 4 5 5 7 6 6 5 2 3 6 6 8 7 6 6 5 5 5 5 3 5 7 6 4 7 6 6 4 5 3 2 2
4 4 4 3 3 3 4 3 1 2 3 3 3 5 3 2 3 1 5 5 4 3 2 4 4 5 6 6 5 6 3 3 6 8 11 6 6 5 5 6 9 7 4 5 6 5 4 4 4 5 4 4 6 5
1 4 3 2 3 4 2 3 4 3 2 3 2 3 2 3 3 4 4 5 4 3 6 6 5 5 6 6 5 4 9 5 5 7 10 6 6 6 7 6 7 7 6 5 4 4 5 6 4 5 4 7 5 4
3 3 5 3 2 2 4 1 2 3 4 4 4 6 6 6 6 6 3 6 7 6 6 6 5 5 9 9 10 8 8 7 10 13 13 12 12 8 5 5 5 5 7 6 5 5 6 6 6 7 3 5 5 6
Wind_Direction
320 309 306 302 296 291 284 280 275 270 267 264 259 256 255 253 225 180 190 192 175 215 255 212 191 206 213 191 211 288 26 349 23 42 121 273 114 241 116 176 166 172 155 194 135 138 253 272 4 162 149 98 116 87
314 312 309 306 300 294 288 280 274 267 263 259 254 248 247 244 237 202 199 177 161 216 282 303 264 252 232 206 165 281 168 224 234 104 276 163 1 83 67 279 146 177 172 172 161 200 239 338 129 110 117 122 126 119
317 317 316 317 316 312 301 292 281 272 266 258 252 245 238 230 223 207 154 142 123 224 267 242 236 228 161 182 170 194 239 94 343 257 210 175 159 91 215 228 139 32 136 107 91 292 134 106 101 117 129 129 139 141
320 321 324 336 344 346 342 328 311 290 272 258 250 243 235 225 215 204 179 162 132 162 247 268 221 236 190 175 198 193 353 355 264 317 270 124 246 174 200 178 118 202 113 128 72 77 71 40 134 144 135 131 127 143
323 326 332 341 347 351 353 351 348 337 287 254 245 236 228 216 205 204 169 181 180 179 247 273 300 205 147 180 198 172 333 339 311 306 197 200 176 127 332 51 247 198 164 132 200 175 136 176 174 133 125 142 148 136
328 332 340 341 346 353 0 6 10 15 19 18 240 225 207 197 156 130 176 175 190 183 261 279 275 200 162 194 197 201 226 276 235 206 232 124 234 100 101 177 284 263 84 143 150 140 127 133 105 112 124 160 160 150
322 333 336 342 351 358 6 12 17 22 26 32 79 90 96 101 89 128 171 144 164 168 223 224 243 345 163 140 106 252 226 246 215 207 229 142 143 89 94 151 72 142 108 101 112 110 78 118 146 113 106 99 113 110
312 323 328 336 340 345 356 8 19 32 30 33 52 74 48 20 122 113 30 155 136 131 250 250 358 336 39 89 230 211 212 158 279 212 39 110 27 88 121 209 126 145 118 116 125 111 140 134 126 124 129 122 123 153
303 315 324 328 333 337 345 354 356 6 22 26 40 19 311 355 28 59 110 113 32 53 297 265 109 128 127 249 235 177 122 214 252 108 133 91 160 166 204 202 141 162 159 160 125 123 126 132 153 154 155 178 173 196
295 306 314 320 327 333 335 339 338 331 322 285 329 280 31 351 119 131 307 133 185 233 223 304 37 129 190 229 301 263 -0 37 68 247 95 101 222 235 200 199 172 174 146 140 117 127 133 131 159 179 193 203 200 199
290 304 315 318 323 329 330 338 339 332 354 12 6 40 349 157 284 227 204 225 165 195 259 259 143 145 273 196 188 96 147 127 87 267 122 222 250 227 203 198 157 146 146 133 115 111 120 133 123 111 90 129 135 155
294 305 307 310 321 324 330 335 345 0 300 232 254 278 285 254 278 317 293 321 12 44 223 290 228 188 78 106 87 347 124 72 210 198 106 232 256 268 144 126 117 119 119 114 115 113 109 106 112 100 139 131 127 119
298 304 305 306 308 312 320 327 326 303 300 112 178 188 111 272 33 14 354 326 9 9 331 300 346 89 37 57 39 13 73 216 43 69 219 225 252 136 119 117 109 111 109 106 99 100 106 105 80 95 125 96 122 109
299 305 305 297 289 292 297 303 318 337 323 352 345 352 26 9 30 326 265 298 275 335 338 10 7 59 47 57 35 327 262 63 55 78 243 322 242 149 118 120 114 111 107 105 99 106 113 114 106 96 100 127 123 118
304 303 304 285 264 269 281 294 299 248 260 280 150 35 18 277 260 253 134 16 331 326 24 356 33 82 61 85 237 277 262 241 109 221 335 322 334 22 83 103 109 108 107 105 104 102 114 103 115 100 99 118 104 111
317 311 272 275 281 297 309 318 309 186 247 262 52 19 330 47 346 8 32 351 308 331 27 28 50 60 56 95 272 26 53 118 83 332 302 309 80 69 79 83 95 105 103 104 107 111 98 101 122 109 83 95 105 104
315 267 345 337 323 301 271 138 287 242 260 53 14 301 143 134 205 290 63 312 306 53 68 23 30 54 305 130 172 8 74 63 328 305 327 114 93 78 82 81 105 109 106 108 107 99 92 98 99 101 97 87 100 98
237 342 353 343 339 315 207 191 250 269 43 6 93 285 359 146 96 3 334 337 47 70 41 88 119 49 46 301 88 38 337 328 307 343 334 134 112 108 140 137 116 110 110 111 109 102 95 103 98 99 114 113 98 93
301 305 305 313 325 306 292 268 145 267 194 179 182 278 96 104 0 157 103 32 77 117 119 102 83 143 217 208 251 288 279 216 9 2 358 89 102 108 108 95 92 93 100 98 98 116 135 133 143 152 156 114 115 133
284 273 266 262 340 285 290 276 110 114 247 224 139 118 127 150 230 220 214 181 136 129 58 85 164 192 204 253 236 234 254 166 129 104 69 62 76 90 83 94 100 101 91 86 104 123 103 89 103 142 139 134 129 130
313 274 36 138 221 210 266 295 343 214 236 176 148 99 337 354 6 213 264 169 51 47 80 157 156 172 187 114 119 95 90 96 88 85 108 101 88 86 81 55 72 92 120 142 146 147 132 156 184 109 120 117 127 139
269 11 321 186 269 232 239 214 172 265 356 248 64 106 127 271 274 228 156 58 44 246 168 140 151 139 114 140 201 157 115 99 104 99 84 97 111 130 165 192 134 211 251 256 204 171 178 169 166 156 154 203 159 134
289 206 243 247 324 26 260 71 92 286 50 320 5 123 199 206 229 91 80 143 234 301 103 113 139 155 146 154 134 145 155 150 144 143 151 180 189 201 208 220 212 220 223 228 208 178 193 209 184 185 191 167 131 112
320 266 283 281 183 256 293 327 36 17 36 357 216 250 186 189 126 66 118 173 204 127 87 136 117 109 97 140 176 191 199 185 205 196 199 193 231 250 223 214 217 196 130 101 89 108 116 101 96 47 200 154 154 135
346 288 104 299 280 291 353 1 42 41 321 333 300 257 162 77 41 323 162 192 156 174 177 187 177 175 174 212 213 215 212 166 169 185 228 185 194 67 272 176 99 289 133 115 124 130 140 136 103 84 111 134 136 129
228 227 158 222 170 176 182 216 262 203 208 238 235 279 64 103 138 242 193 175 173 173 180 189 194 198 228 201 188 200 220 178 148 179 257 182 198 160 187 140 131 285 155 123 133 158 143 142 128 83 121 165 154 143
242 232 221 129 130 111 301 262 171 186 225 228 241 114 105 201 219 247 153 154 159 192 182 189 198 203 208 208 195 205 194 158 185 208 203 175 217 182 162 154 161 204 153 141 173 158 154 169 136 140 171 167 160 179
234 210 194 189 178 189 192 221 211 208 223 215 180 161 187 198 217 194 183 195 169 174 170 182 184 169 161 173 152 134 122 118 116 99 68 46 50 92 106 104 123 146 144 160 184 169 159 176 185 217 166 158 198 254
252 252 237 268 291 191 187 183 185 232 207 87 91 126 213 200 184 128 152 169 149 129 151 163 228 144 101 113 137 147 141 135 126 122 123 133 111 341 143 121 96 107 111 94 80 129 145 136 138 130 130 146 161 117
242 212 276 327 257 144 270 139 183 232 106 136 130 45 33 23 141 118 107 118 121 170 194 153 157 130 148 142 156 198 182 158 157 144 154 169 183 187 163 163 154 113 93 102 99 97 90 86 95 95 104 109 121 171
336 300 223 225 251 225 201 194 177 89 92 114 101 113 150 144 358 177 150 167 181 191 132 138 165 175 149 161 161 152 158 243 185 161 161 148 157 158 127 117 123 125 158 167 145 154 141 140 154 164 181 189 187 178
179 259 346 288 271 266 172 159 193 141 133 105 151 133 100 86 172 240 218 145 164 199 216 177 157 192 186 165 155 128 122 137 119 130 138 144 151 161 156 150 155 157 169 176 159 158 171 186 210 218 187 205 195 182
229 234 223 276 270 237 257 188 222 180 135 173 180 176 189 164 193 227 219 171 171 189 192 191 192 144 132 127 131 127 118 117 122 115 107 118 135 135 131 159 173 168 178 162 157 167 190 201 226 254 267 199 200 204